Data No, UTC Date,UTC Time,Latitude,Longitude,Course(deg),Temp(degC),Sal(psu)
686,2020/5/11,11:25,35-35.74N,139-47.14E,215,19.008,24.9749
687,2020/5/11,11:26,35-35.55N,139-47.08E,187,20.074,25.2845
688,2020/5/11,11:27,35-35.37N,139-47.18E,150,20.441,25.5616
689,2020/5/11,11:28,35-35.20N,139-47.33E,140,19.387,25.6218
690,2020/5/11,11:29,35-35.06N,139-47.48E,136,18.769,25.4706
691,2020/5/11,11:30,35-34.91N,139-47.68E,130,18.577,24.7531
692,2020/5/11,11:31,35-34.76N,139-47.90E,129,18.795,24.9263
693,2020/5/11,11:32,35-34.61N,139-48.13E,129,18.676,25.4083
694,2020/5/11,11:33,35-34.44N,139-48.38E,129,18.595,25.8574
695,2020/5/11,11:34,35-34.26N,139-48.64E,129,18.553,26.2107
696,2020/5/11,11:35,35-34.08N,139-48.90E,129,18.593,26.5955
697,2020/5/11,11:36,35-33.90N,139-49.17E,129,18.76,26.8934
698,2020/5/11,11:37,35-33.71N,139-49.45E,128,18.766,27.1232
699,2020/5/11,11:38,35-33.52N,139-49.73E,129,19.44,27.3496
700,2020/5/11,11:39,35-33.33N,139-50.01E,128,19.755,27.5055
701,2020/5/11,11:40,35-33.14N,139-50.30E,128,19.62,27.6745
702,2020/5/11,11:41,35-32.93N,139-50.57E,139,19.83,27.8242
703,2020/5/11,11:42,35-32.66N,139-50.71E,162,20.114,28.0373
704,2020/5/11,11:43,35-32.37N,139-50.81E,164,19.423,28.2119
705,2020/5/11,11:44,35-32.07N,139-50.91E,164,18.751,28.2797
706,2020/5/11,11:45,35-31.78N,139-51.01E,165,18.695,28.3378
707,2020/5/11,11:46,35-31.49N,139-51.10E,164,18.579,28.4687
708,2020/5/11,11:47,35-31.19N,139-51.20E,165,18.573,28.5796
709,2020/5/11,11:48,35-30.89N,139-51.30E,165,18.515,28.6899
710,2020/5/11,11:49,35-30.58N,139-51.33E,179,18.994,28.7815
711,2020/5/11,11:50,35-30.28N,139-51.29E,190,19.119,28.8559
712,2020/5/11,11:51,35-29.98N,139-51.17E,199,19.099,28.9167
713,2020/5/11,11:52,35-29.69N,139-51.02E,204,18.913,28.9732
714,2020/5/11,11:53,35-29.41N,139-50.84E,209,18.799,29.069
715,2020/5/11,11:54,35-29.14N,139-50.65E,209,18.422,29.1614
716,2020/5/11,11:55,35-28.88N,139-50.43E,219,18.561,29.263
717,2020/5/11,11:56,35-28.67N,139-50.13E,232,19.045,29.3687
718,2020/5/11,11:57,35-28.50N,139-49.83E,232,18.25,29.4757
719,2020/5/11,11:58,35-28.31N,139-49.52E,232,18.264,29.5462
720,2020/5/11,11:59,35-28.11N,139-49.21E,233,18.415,29.6594
721,2020/5/11,12:00,35-27.92N,139-48.90E,231,18.24,29.7298
722,2020/5/11,12:01,35-27.73N,139-48.59E,232,18.214,29.8006
723,2020/5/11,12:02,35-27.54N,139-48.28E,232,18.366,29.8838
724,2020/5/11,12:03,35-27.33N,139-47.96E,233,18.471,29.9544
725,2020/5/11,12:04,35-27.12N,139-47.64E,233,18.781,30.0631
726,2020/5/11,12:05,35-26.89N,139-47.36E,233,18.85,30.1682
727,2020/5/11,12:06,35-26.70N,139-47.06E,232,19.211,30.3096
728,2020/5/11,12:07,35-26.52N,139-46.71E,234,19.409,30.4046
729,2020/5/11,12:08,35-26.31N,139-46.40E,232,18.502,30.5194
730,2020/5/11,12:09,35-26.12N,139-46.08E,233,17.926,30.6339
731,2020/5/11,12:10,35-25.93N,139-45.78E,234,17.931,30.7234
732,2020/5/11,12:11,35-25.73N,139-45.46E,233,17.852,30.7013
733,2020/5/11,12:12,35-25.53N,139-45.16E,233,17.796,30.6683
734,2020/5/11,12:13,35-25.39N,139-44.83E,232,17.694,30.6162
735,2020/5/11,12:14,35-25.19N,139-44.51E,234,17.673,30.5602
736,2020/5/11,12:15,35-25.00N,139-44.19E,234,17.651,30.5455
737,2020/5/11,12:16,35-24.83N,139-43.87E,234,17.617,30.5482
738,2020/5/11,12:17,35-24.64N,139-43.54E,235,17.669,30.5499
739,2020/5/11,12:18,35-24.43N,139-43.21E,228,17.73,30.5797
740,2020/5/11,12:19,35-24.16N,139-43.02E,206,17.917,30.6012
741,2020/5/11,12:20,35-23.88N,139-42.86E,205,18.323,30.6216
742,2020/5/11,12:21,35-23.59N,139-42.70E,204,18.537,30.623
743,2020/5/11,12:22,35-23.30N,139-42.53E,205,18.586,30.6048
744,2020/5/11,12:23,35-23.05N,139-42.39E,204,18.696,30.6041
745,2020/5/11,12:24,35-22.74N,139-42.32E,181,18.628,30.6275
746,2020/5/11,12:25,35-22.43N,139-42.31E,181,17.997,30.646
747,2020/5/11,12:26,35-22.11N,139-42.31E,179,17.765,30.6516
748,2020/5/11,12:27,35-21.80N,139-42.33E,175,17.299,30.7107
749,2020/5/11,12:28,35-21.49N,139-42.36E,174,17.305,30.7876
750,2020/5/11,12:29,35-21.16N,139-42.39E,175,17.33,30.8647
751,2020/5/11,12:30,35-20.91N,139-42.41E,175,17.577,30.9385
752,2020/5/11,12:31,35-20.71N,139-42.43E,175,17.789,30.9923
753,2020/5/11,12:32,35-20.48N,139-42.45E,175,17.98,31.0291
754,2020/5/11,12:33,35-20.25N,139-42.48E,174,17.756,31.0624
755,2020/5/11,12:34,35-20.03N,139-42.50E,175,17.611,31.1091
756,2020/5/11,12:35,35-19.82N,139-42.56E,160,17.451,31.1624
757,2020/5/11,12:36,35-19.64N,139-42.70E,143,17.616,31.2311
758,2020/5/11,12:37,35-19.46N,139-42.85E,144,17.761,31.2904
759,2020/5/11,12:38,35-19.28N,139-43.01E,144,17.849,31.3409
760,2020/5/11,12:39,35-19.09N,139-43.17E,144,17.81,31.4541
761,2020/5/11,12:40,35-18.91N,139-43.32E,144,17.418,31.6022
762,2020/5/11,12:41,35-18.74N,139-43.48E,144,17.462,31.711
763,2020/5/11,12:42,35-18.56N,139-43.63E,145,17.568,31.8651
764,2020/5/11,12:43,35-18.38N,139-43.78E,145,17.413,32.041
765,2020/5/11,12:44,35-18.20N,139-43.94E,145,17.345,32.1473
766,2020/5/11,12:45,35-18.02N,139-44.10E,143,17.465,32.2303
767,2020/5/11,12:46,35-17.84N,139-44.26E,144,17.57,32.2827
768,2020/5/11,12:47,35-17.64N,139-44.43E,144,17.655,32.3201
769,2020/5/11,12:48,35-17.46N,139-44.59E,143,17.709,32.3627
770,2020/5/11,12:49,35-17.28N,139-44.73E,144,17.741,32.4008
771,2020/5/11,12:50,35-17.12N,139-44.87E,144,17.724,32.4143
772,2020/5/11,12:51,35-16.95N,139-45.02E,144,17.609,32.4091
773,2020/5/11,12:52,35-16.77N,139-45.18E,144,17.283,32.4034
774,2020/5/11,12:53,35-16.60N,139-45.34E,144,17.27,32.4635
775,2020/5/11,12:54,35-16.43N,139-45.48E,144,17.207,32.5009
776,2020/5/11,12:55,35-16.25N,139-45.62E,144,17.259,32.5488
777,2020/5/11,12:56,35-16.09N,139-45.76E,144,17.359,32.5933
778,2020/5/11,12:57,35-15.94N,139-45.88E,144,17.446,32.6421
779,2020/5/11,12:58,35-15.78N,139-46.02E,145,17.464,32.6997
780,2020/5/11,12:59,35-15.61N,139-46.16E,145,17.41,32.7667
781,2020/5/11,13:00,35-15.44N,139-46.31E,144,17.665,32.8117
782,2020/5/11,13:01,35-15.24N,139-46.42E,163,17.92,32.8542
783,2020/5/11,13:02,35-15.01N,139-46.44E,178,18.035,32.8939
784,2020/5/11,13:03,35-14.78N,139-46.43E,180,18.002,32.9293
785,2020/5/11,13:04,35-14.56N,139-46.43E,180,18.046,32.9428
786,2020/5/11,13:05,35-14.37N,139-46.43E,180,18.114,32.9546
787,2020/5/11,13:06,35-14.14N,139-46.43E,179,18.216,32.9995
788,2020/5/11,13:07,35-13.89N,139-46.42E,180,18.245,33.0367
789,2020/5/11,13:08,35-13.67N,139-46.42E,180,18.274,33.0727
790,2020/5/11,13:09,35-13.48N,139-46.42E,180,18.296,33.1075
791,2020/5/11,13:10,35-13.26N,139-46.42E,180,18.3,33.1438
792,2020/5/11,13:11,35-13.05N,139-46.41E,180,18.284,33.2008
793,2020/5/11,13:12,35-12.83N,139-46.41E,179,18.265,33.2562
794,2020/5/11,13:13,35-12.58N,139-46.41E,181,18.306,33.2941
795,2020/5/11,13:14,35-12.31N,139-46.39E,184,18.253,33.335
796,2020/5/11,13:15,35-12.04N,139-46.35E,189,18.204,33.3715
797,2020/5/11,13:16,35-11.77N,139-46.28E,193,18.581,33.396
798,2020/5/11,13:17,35-11.50N,139-46.19E,195,18.721,33.4061
799,2020/5/11,13:18,35-11.24N,139-46.10E,194,18.714,33.4362
800,2020/5/11,13:19,35-10.97N,139-46.00E,199,18.703,33.4986
801,2020/5/11,13:20,35-10.71N,139-45.89E,199,18.669,33.5395
802,2020/5/11,13:21,35-10.45N,139-45.77E,199,18.664,33.5819
803,2020/5/11,13:22,35-10.19N,139-45.66E,199,18.592,33.6163
804,2020/5/11,13:23,35-09.93N,139-45.55E,199,18.447,33.6406
805,2020/5/11,13:24,35-09.67N,139-45.44E,199,18.363,33.6686
806,2020/5/11,13:25,35-09.40N,139-45.32E,200,18.338,33.6858
807,2020/5/11,13:26,35-09.14N,139-45.19E,202,18.304,33.6908
808,2020/5/11,13:27,35-08.88N,139-45.06E,202,18.402,33.6915
809,2020/5/11,13:28,35-08.63N,139-44.93E,202,18.407,33.6902
810,2020/5/11,13:29,35-08.37N,139-44.80E,202,18.443,33.6912
811,2020/5/11,13:30,35-08.12N,139-44.68E,202,18.35,33.6903
812,2020/5/11,13:31,35-07.87N,139-44.55E,201,18.19,33.6914
813,2020/5/11,13:32,35-07.60N,139-44.42E,202,18.267,33.6929
814,2020/5/11,13:33,35-07.36N,139-44.29E,203,18.387,33.696
815,2020/5/11,13:34,35-07.11N,139-44.16E,203,18.415,33.7037
816,2020/5/11,13:35,35-06.86N,139-44.02E,204,18.513,33.7094
817,2020/5/11,13:36,35-06.61N,139-43.88E,204,18.538,33.7079
818,2020/5/11,13:37,35-06.37N,139-43.75E,204,18.486,33.7098
819,2020/5/11,13:38,35-06.12N,139-43.61E,204,18.451,33.71
820,2020/5/11,13:39,35-05.87N,139-43.49E,200,18.342,33.7097
821,2020/5/11,13:40,35-05.62N,139-43.37E,199,18.404,33.7153
822,2020/5/11,13:41,35-05.36N,139-43.26E,199,18.52,33.7169
823,2020/5/11,13:42,35-05.10N,139-43.15E,199,18.538,33.7257
824,2020/5/11,13:43,35-04.85N,139-43.04E,199,18.428,33.7223
825,2020/5/11,13:44,35-04.59N,139-42.93E,196,18.416,33.7087
826,2020/5/11,13:45,35-04.32N,139-42.86E,191,18.42,33.693
827,2020/5/11,13:46,35-04.05N,139-42.79E,190,18.41,33.6917
828,2020/5/11,13:47,35-03.74N,139-42.73E,190,18.374,33.6977
829,2020/5/11,13:48,35-03.47N,139-42.66E,190,18.562,33.7037
830,2020/5/11,13:49,35-03.22N,139-42.61E,190,18.605,33.7017
831,2020/5/11,13:50,35-02.93N,139-42.54E,189,18.63,33.7101
832,2020/5/11,13:51,35-02.64N,139-42.48E,190,18.665,33.7349
833,2020/5/11,13:52,35-02.39N,139-42.42E,190,18.649,33.7521
834,2020/5/11,13:53,35-02.13N,139-42.37E,190,18.618,33.7471
835,2020/5/11,13:54,35-01.86N,139-42.31E,190,18.588,33.7268
836,2020/5/11,13:55,35-01.58N,139-42.24E,190,18.532,33.7093
837,2020/5/11,13:56,35-01.30N,139-42.18E,190,18.456,33.6666
838,2020/5/11,13:57,35-01.03N,139-42.12E,190,18.394,33.6392
839,2020/5/11,13:58,35-00.75N,139-42.06E,190,18.309,33.6506
840,2020/5/11,13:59,35-00.47N,139-41.99E,190,18.272,33.646
841,2020/5/11,14:00,35-00.18N,139-41.93E,190,18.301,33.6302
842,2020/5/11,14:01,34-59.90N,139-41.87E,189,18.149,33.6098
843,2020/5/11,14:02,34-59.62N,139-41.82E,188,18.2,33.5886
844,2020/5/11,14:03,34-59.32N,139-41.77E,188,18.339,33.5705
845,2020/5/11,14:04,34-59.00N,139-41.70E,189,18.059,33.5528
846,2020/5/11,14:05,34-58.71N,139-41.65E,188,17.885,33.517
847,2020/5/11,14:06,34-58.46N,139-41.60E,188,17.835,33.4708
848,2020/5/11,14:07,34-58.18N,139-41.56E,185,17.788,33.4157
849,2020/5/11,14:08,34-57.89N,139-41.55E,178,18.096,33.3947
850,2020/5/11,14:09,34-57.60N,139-41.59E,173,18.117,33.3601
851,2020/5/11,14:10,34-57.32N,139-41.66E,162,18.141,33.342
852,2020/5/11,14:11,34-57.07N,139-41.82E,149,18.071,33.3106
853,2020/5/11,14:12,34-56.82N,139-42.02E,145,17.934,33.2809
854,2020/5/11,14:13,34-56.58N,139-42.23E,143,17.939,33.257
855,2020/5/11,14:14,34-56.34N,139-42.44E,144,17.9,33.2341
856,2020/5/11,14:15,34-56.10N,139-42.66E,143,17.899,33.2269
857,2020/5/11,14:16,34-55.87N,139-42.89E,139,17.867,33.2243
858,2020/5/11,14:17,34-55.60N,139-43.16E,139,17.813,33.2223
859,2020/5/11,14:18,34-55.38N,139-43.40E,139,17.747,33.2315
860,2020/5/11,14:19,34-55.17N,139-43.61E,139,17.688,33.2418
861,2020/5/11,14:20,34-54.93N,139-43.85E,140,17.707,33.2497
862,2020/5/11,14:21,34-54.67N,139-44.11E,140,17.766,33.2581
863,2020/5/11,14:22,34-54.42N,139-44.36E,140,17.857,33.2668
864,2020/5/11,14:23,34-54.21N,139-44.56E,141,17.725,33.2756
865,2020/5/11,14:24,34-53.97N,139-44.80E,141,17.74,33.2927
866,2020/5/11,14:25,34-53.73N,139-45.03E,141,17.709,33.2994
867,2020/5/11,14:26,34-53.49N,139-45.26E,141,17.66,33.3053
868,2020/5/11,14:27,34-53.25N,139-45.49E,140,17.698,33.3107
869,2020/5/11,14:28,34-53.02N,139-45.74E,138,17.665,33.3137
870,2020/5/11,14:29,34-52.80N,139-46.00E,134,17.641,33.3109
871,2020/5/11,14:30,34-52.58N,139-46.28E,132,17.626,33.3157
872,2020/5/11,14:31,34-52.36N,139-46.57E,132,17.689,33.3161
873,2020/5/11,14:32,34-52.15N,139-46.84E,132,17.737,33.3141
874,2020/5/11,14:33,34-51.94N,139-47.13E,132,17.742,33.3171
875,2020/5/11,14:34,34-51.73N,139-47.41E,131,17.709,33.3202
876,2020/5/11,14:35,34-51.52N,139-47.70E,130,17.751,33.3218
877,2020/5/11,14:36,34-51.32N,139-47.99E,130,17.802,33.3244
878,2020/5/11,14:37,34-51.15N,139-48.29E,121,17.664,33.3258
879,2020/5/11,14:38,34-51.02N,139-48.60E,112,17.364,33.3244
880,2020/5/11,14:39,34-50.95N,139-48.94E,103,17.459,33.3337
881,2020/5/11,14:40,34-50.90N,139-49.29E,99,17.689,33.3812
882,2020/5/11,14:41,34-50.86N,139-49.64E,98,17.728,33.4224
883,2020/5/11,14:42,34-50.82N,139-49.97E,98,17.683,33.4557
884,2020/5/11,14:43,34-50.78N,139-50.31E,97,17.526,33.4771
885,2020/5/11,14:44,34-50.75N,139-50.59E,95,17.381,33.4922
886,2020/5/11,14:45,34-50.73N,139-50.93E,93,17.201,33.5033
887,2020/5/11,14:46,34-50.71N,139-51.25E,94,17.264,33.5242
888,2020/5/11,14:47,34-50.68N,139-51.62E,95,17.213,33.5454
889,2020/5/11,14:48,34-50.66N,139-51.96E,93,16.881,33.5657
890,2020/5/11,14:49,34-50.65N,139-52.29E,92,16.728,33.5758
891,2020/5/11,14:50,34-50.64N,139-52.61E,91,16.658,33.5884
892,2020/5/11,14:51,34-50.64N,139-52.94E,90,16.601,33.6073
893,2020/5/11,14:52,34-50.64N,139-53.27E,90,16.57,33.6187
894,2020/5/11,14:53,34-50.63N,139-53.61E,89,16.529,33.626
895,2020/5/11,14:54,34-50.63N,139-53.89E,90,16.602,33.6374
896,2020/5/11,14:55,34-50.62N,139-54.21E,90,16.758,33.6461
897,2020/5/11,14:56,34-50.62N,139-54.54E,89,16.667,33.653
898,2020/5/11,14:57,34-50.63N,139-54.87E,86,16.603,33.6566
899,2020/5/11,14:58,34-50.65N,139-55.20E,82,16.572,33.6577
900,2020/5/11,14:59,34-50.70N,139-55.53E,78,16.531,33.6646
901,2020/5/11,15:00,34-50.77N,139-55.84E,72,16.549,33.6693
902,2020/5/11,15:01,34-50.88N,139-56.15E,66,16.701,33.6742
903,2020/5/11,15:02,34-51.00N,139-56.44E,62,16.728,33.6776
904,2020/5/11,15:03,34-51.13N,139-56.74E,62,16.964,33.6834
905,2020/5/11,15:04,34-51.25N,139-57.04E,61,16.949,33.6858
906,2020/5/11,15:05,34-51.37N,139-57.33E,60,17.049,33.686
907,2020/5/11,15:06,34-51.51N,139-57.62E,61,16.896,33.6755
908,2020/5/11,15:07,34-51.64N,139-57.91E,60,16.731,33.6623
909,2020/5/11,15:08,34-51.78N,139-58.19E,60,17.063,33.6601
910,2020/5/11,15:09,34-51.91N,139-58.48E,61,17.123,33.6667
911,2020/5/11,15:10,34-52.04N,139-58.77E,61,17.078,33.6754
912,2020/5/11,15:11,34-52.17N,139-59.06E,61,17.27,33.6764
913,2020/5/11,15:12,34-52.30N,139-59.35E,61,17.148,33.6822
914,2020/5/11,15:13,34-52.43N,139-59.64E,61,17.103,33.6976
915,2020/5/11,15:14,34-52.57N,139-59.93E,60,17.159,33.7109
916,2020/5/11,15:15,34-52.70N,140-00.22E,60,17.13,33.7208
917,2020/5/11,15:16,34-52.84N,140-00.52E,61,16.998,33.7312
918,2020/5/11,15:17,34-52.97N,140-00.81E,60,17.038,33.7416
919,2020/5/11,15:18,34-53.10N,140-01.10E,60,17.295,33.7496
920,2020/5/11,15:19,34-53.24N,140-01.40E,60,17.325,33.7557
921,2020/5/11,15:20,34-53.37N,140-01.69E,61,17.428,33.7646
922,2020/5/11,15:21,34-53.50N,140-01.98E,60,17.47,33.7796
923,2020/5/11,15:22,34-53.63N,140-02.27E,60,17.744,33.7974
924,2020/5/11,15:23,34-53.77N,140-02.56E,60,18.179,33.8146
925,2020/5/11,15:24,34-53.90N,140-02.85E,61,18.257,33.827
926,2020/5/11,15:25,34-54.03N,140-03.14E,61,18.213,33.842
927,2020/5/11,15:26,34-54.16N,140-03.43E,61,18.24,33.8609
928,2020/5/11,15:27,34-54.30N,140-03.73E,61,18.195,33.8772
929,2020/5/11,15:28,34-54.43N,140-04.02E,61,18.163,33.8893
930,2020/5/11,15:29,34-54.55N,140-04.31E,61,18.106,33.8983
931,2020/5/11,15:30,34-54.68N,140-04.60E,61,18.064,33.9017
932,2020/5/11,15:31,34-54.82N,140-04.89E,61,18.074,33.902
933,2020/5/11,15:32,34-54.96N,140-05.23E,61,18.06,33.902
934,2020/5/11,15:33,34-55.09N,140-05.51E,61,18.062,33.9017
935,2020/5/11,15:34,34-55.21N,140-05.76E,60,18.052,33.9008
936,2020/5/11,15:35,34-55.34N,140-06.05E,60,18.047,33.8998
937,2020/5/11,15:36,34-55.48N,140-06.36E,60,18.127,33.8983
938,2020/5/11,15:37,34-55.63N,140-06.68E,60,17.991,33.8966
939,2020/5/11,15:38,34-55.76N,140-06.97E,60,17.93,33.8976
940,2020/5/11,15:39,34-55.88N,140-07.22E,60,17.947,33.8952
941,2020/5/11,15:40,34-56.01N,140-07.50E,60,17.958,33.8906
942,2020/5/11,15:41,34-56.14N,140-07.80E,60,17.966,33.8898
943,2020/5/11,15:42,34-56.28N,140-08.09E,60,18.042,33.8874
944,2020/5/11,15:43,34-56.41N,140-08.38E,60,18.103,33.8852
945,2020/5/11,15:44,34-56.55N,140-08.66E,60,18.227,33.8868
946,2020/5/11,15:45,34-56.68N,140-08.95E,60,18.342,33.8878
947,2020/5/11,15:46,34-56.82N,140-09.24E,60,18.24,33.89
948,2020/5/11,15:47,34-56.97N,140-09.57E,60,18.24,33.8925
949,2020/5/11,15:48,34-57.08N,140-09.81E,60,18.254,33.8977
950,2020/5/11,15:49,34-57.22N,140-10.11E,60,18.337,33.9007
951,2020/5/11,15:50,34-57.35N,140-10.39E,60,18.323,33.9027
952,2020/5/11,15:51,34-57.48N,140-10.68E,60,18.33,33.9023
953,2020/5/11,15:52,34-57.62N,140-10.97E,60,18.312,33.9049
954,2020/5/11,15:53,34-57.75N,140-11.26E,60,18.302,33.9067
955,2020/5/11,15:54,34-57.89N,140-11.55E,59,18.288,33.9055
956,2020/5/11,15:55,34-58.03N,140-11.83E,59,18.292,33.9026
957,2020/5/11,15:56,34-58.17N,140-12.12E,59,18.277,33.9007
958,2020/5/11,15:57,34-58.31N,140-12.40E,59,18.308,33.8989
959,2020/5/11,15:58,34-58.45N,140-12.70E,59,18.358,33.8984
960,2020/5/11,15:59,34-58.59N,140-12.99E,59,18.314,33.8977
961,2020/5/11,16:00,34-58.72N,140-13.27E,59,18.247,33.8973
962,2020/5/11,16:01,34-58.86N,140-13.56E,59,18.172,33.8974
963,2020/5/11,16:02,34-59.00N,140-13.85E,59,18.117,33.8951
964,2020/5/11,16:03,34-59.14N,140-14.15E,59,18.078,33.8908
965,2020/5/11,16:04,34-59.28N,140-14.44E,59,18.061,33.8861
966,2020/5/11,16:05,34-59.42N,140-14.72E,60,18.044,33.8801
967,2020/5/11,16:06,34-59.56N,140-15.02E,60,18.051,33.875
968,2020/5/11,16:07,34-59.70N,140-15.31E,60,18.038,33.8712
969,2020/5/11,16:08,34-59.84N,140-15.61E,60,17.954,33.8703
970,2020/5/11,16:09,34-59.98N,140-15.90E,60,17.949,33.8659
971,2020/5/11,16:10,35-00.12N,140-16.20E,60,17.981,33.8624
972,2020/5/11,16:11,35-00.25N,140-16.50E,60,17.98,33.8615
973,2020/5/11,16:12,35-00.39N,140-16.79E,60,17.932,33.8602
974,2020/5/11,16:13,35-00.53N,140-17.09E,60,17.934,33.8596
975,2020/5/11,16:14,35-00.67N,140-17.39E,60,18.017,33.8551
976,2020/5/11,16:15,35-00.81N,140-17.69E,60,18.013,33.856
977,2020/5/11,16:16,35-00.94N,140-17.98E,61,18.082,33.8555
978,2020/5/11,16:17,35-01.08N,140-18.29E,60,18.156,33.8576
979,2020/5/11,16:18,35-01.21N,140-18.58E,61,18.302,33.8586
980,2020/5/11,16:19,35-01.35N,140-18.88E,61,18.403,33.8599
981,2020/5/11,16:20,35-01.49N,140-19.18E,61,18.271,33.8606
982,2020/5/11,16:21,35-01.62N,140-19.48E,61,18.333,33.8643
983,2020/5/11,16:22,35-01.75N,140-19.77E,61,18.384,33.8655
984,2020/5/11,16:23,35-01.89N,140-20.07E,59,18.395,33.8668
985,2020/5/11,16:24,35-02.04N,140-20.36E,57,18.267,33.8695
986,2020/5/11,16:25,35-02.19N,140-20.65E,57,18.197,33.8706
987,2020/5/11,16:26,35-02.34N,140-20.92E,56,18.093,33.8704
988,2020/5/11,16:27,35-02.50N,140-21.20E,56,18.097,33.8691
989,2020/5/11,16:28,35-02.65N,140-21.49E,56,18.076,33.8653
990,2020/5/11,16:29,35-02.83N,140-21.81E,55,18.134,33.8654
991,2020/5/11,16:30,35-03.00N,140-22.09E,53,18.189,33.8643
992,2020/5/11,16:31,35-03.17N,140-22.36E,52,18.117,33.8654
993,2020/5/11,16:32,35-03.31N,140-22.58E,52,18.067,33.8639
994,2020/5/11,16:33,35-03.48N,140-22.85E,52,17.914,33.8627
995,2020/5/11,16:34,35-03.66N,140-23.12E,52,17.499,33.8598
996,2020/5/11,16:35,35-03.86N,140-23.43E,52,17.403,33.854
997,2020/5/11,16:36,35-04.02N,140-23.70E,52,17.826,33.8446
998,2020/5/11,16:37,35-04.20N,140-23.96E,51,17.566,33.8361
999,2020/5/11,16:38,35-04.35N,140-24.20E,52,17.278,33.8353
1000,2020/5/11,16:39,35-04.52N,140-24.47E,52,17.403,33.8322
1001,2020/5/11,16:40,35-04.71N,140-24.78E,53,17.659,33.8225
1002,2020/5/11,16:41,35-04.88N,140-25.07E,56,17.69,33.8161
1003,2020/5/11,16:42,35-05.04N,140-25.37E,57,17.735,33.8175
1004,2020/5/11,16:43,35-05.18N,140-25.67E,60,17.812,33.8123
1005,2020/5/11,16:44,35-05.31N,140-25.98E,62,17.665,33.809
1006,2020/5/11,16:45,35-05.45N,140-26.30E,62,17.506,33.8085
1007,2020/5/11,16:46,35-05.58N,140-26.60E,62,17.51,33.808
1008,2020/5/11,16:47,35-05.72N,140-26.91E,61,17.554,33.798
1009,2020/5/11,16:48,35-05.85N,140-27.22E,62,17.601,33.7912
1010,2020/5/11,16:49,35-05.99N,140-27.54E,62,17.631,33.7856
1011,2020/5/11,16:50,35-06.11N,140-27.81E,62,17.633,33.7796
1012,2020/5/11,16:51,35-06.24N,140-28.11E,61,17.546,33.7779
1013,2020/5/11,16:52,35-06.38N,140-28.42E,61,17.666,33.7747
1014,2020/5/11,16:53,35-06.52N,140-28.73E,61,17.591,33.7666
1015,2020/5/11,16:54,35-06.65N,140-29.04E,61,17.507,33.7598
1016,2020/5/11,16:55,35-06.79N,140-29.35E,62,17.408,33.7511
1017,2020/5/11,16:56,35-06.92N,140-29.66E,61,17.408,33.7435
1018,2020/5/11,16:57,35-07.06N,140-29.97E,61,17.358,33.7404
1019,2020/5/11,16:58,35-07.20N,140-30.28E,61,17.406,33.7397
1020,2020/5/11,16:59,35-07.34N,140-30.60E,61,17.454,33.7361
1021,2020/5/11,17:00,35-07.48N,140-30.90E,61,17.477,33.7338
1022,2020/5/11,17:01,35-07.62N,140-31.21E,61,17.583,33.731
1023,2020/5/11,17:02,35-07.78N,140-31.50E,50,17.68,33.7251
1024,2020/5/11,17:03,35-07.98N,140-31.71E,36,17.685,33.7232
1025,2020/5/11,17:04,35-08.21N,140-31.90E,34,17.736,33.7205
1026,2020/5/11,17:05,35-08.45N,140-32.11E,35,18.086,33.7207
1027,2020/5/11,17:06,35-08.68N,140-32.31E,36,18.108,33.7168
1028,2020/5/11,17:07,35-08.91N,140-32.52E,36,18.1,33.7169
1029,2020/5/11,17:08,35-09.13N,140-32.73E,38,18.118,33.7268
1030,2020/5/11,17:09,35-09.36N,140-32.95E,38,17.951,33.7391
1031,2020/5/11,17:10,35-09.58N,140-33.17E,39,17.727,33.7546
1032,2020/5/11,17:11,35-09.82N,140-33.40E,38,17.386,33.7731
1033,2020/5/11,17:12,35-10.04N,140-33.61E,38,17.35,33.7913
1034,2020/5/11,17:13,35-10.26N,140-33.83E,38,17.323,33.803
1035,2020/5/11,17:14,35-10.48N,140-34.05E,39,17.25,33.811
1036,2020/5/11,17:15,35-10.70N,140-34.27E,39,17.041,33.8195
1037,2020/5/11,17:16,35-10.93N,140-34.49E,38,16.836,33.8276
1038,2020/5/11,17:17,35-11.16N,140-34.71E,38,16.543,33.8231
1039,2020/5/11,17:18,35-11.37N,140-34.93E,38,16.362,33.8214
1040,2020/5/11,17:19,35-11.60N,140-35.16E,38,16.289,33.811
1041,2020/5/11,17:20,35-11.82N,140-35.37E,39,16.164,33.7999
1042,2020/5/11,17:21,35-12.05N,140-35.59E,39,16.072,33.7891
1043,2020/5/11,17:22,35-12.28N,140-35.82E,38,15.864,33.7754
1044,2020/5/11,17:23,35-12.49N,140-36.03E,39,15.649,33.7716
1045,2020/5/11,17:24,35-12.72N,140-36.25E,38,15.837,33.7558
1046,2020/5/11,17:25,35-12.94N,140-36.47E,38,15.998,33.7464
1047,2020/5/11,17:26,35-13.17N,140-36.69E,38,16.06,33.7388
1048,2020/5/11,17:27,35-13.39N,140-36.91E,38,16.229,33.7382
1049,2020/5/11,17:28,35-13.62N,140-37.12E,38,16.197,33.7418
1050,2020/5/11,17:29,35-13.84N,140-37.34E,37,16.181,33.7442
1051,2020/5/11,17:30,35-14.08N,140-37.56E,38,16.105,33.7529
1052,2020/5/11,17:31,35-14.30N,140-37.76E,37,15.997,33.7574
1053,2020/5/11,17:32,35-14.53N,140-37.97E,35,15.914,33.759
1054,2020/5/11,17:33,35-14.76N,140-38.17E,34,15.776,33.7547
1055,2020/5/11,17:34,35-14.99N,140-38.36E,35,15.57,33.7529
1056,2020/5/11,17:35,35-15.20N,140-38.56E,36,15.113,33.7488
1057,2020/5/11,17:36,35-15.43N,140-38.75E,35,15.116,33.7477
1058,2020/5/11,17:37,35-15.67N,140-38.96E,35,15.051,33.7313
1059,2020/5/11,17:38,35-15.87N,140-39.14E,35,15.047,33.7191
1060,2020/5/11,17:39,35-16.09N,140-39.34E,35,14.911,33.7142
1061,2020/5/11,17:40,35-16.31N,140-39.53E,35,14.829,33.7097
1062,2020/5/11,17:41,35-16.53N,140-39.72E,34,14.837,33.7068
1063,2020/5/11,17:42,35-16.75N,140-39.91E,35,14.841,33.7078
1064,2020/5/11,17:43,35-16.98N,140-40.11E,34,14.818,33.7083
1065,2020/5/11,17:44,35-17.20N,140-40.30E,35,14.797,33.7069
1066,2020/5/11,17:45,35-17.42N,140-40.49E,35,14.729,33.7082
1067,2020/5/11,17:46,35-17.64N,140-40.68E,34,14.688,33.7089
1068,2020/5/11,17:47,35-17.88N,140-40.88E,35,14.689,33.7097
1069,2020/5/11,17:48,35-18.10N,140-41.07E,35,14.651,33.7095
1070,2020/5/11,17:49,35-18.32N,140-41.26E,35,14.733,33.7104
1071,2020/5/11,17:50,35-18.54N,140-41.46E,35,14.77,33.7127
1072,2020/5/11,17:51,35-18.77N,140-41.65E,34,14.845,33.7165
1073,2020/5/11,17:52,35-19.00N,140-41.86E,35,14.982,33.7181
1074,2020/5/11,17:53,35-19.23N,140-42.05E,35,14.985,33.7223
1075,2020/5/11,17:54,35-19.45N,140-42.24E,34,14.902,33.7269
1076,2020/5/11,17:55,35-19.68N,140-42.44E,34,14.858,33.7288
1077,2020/5/11,17:56,35-19.92N,140-42.64E,34,14.859,33.7316
1078,2020/5/11,17:57,35-20.14N,140-42.83E,34,14.886,33.735
1079,2020/5/11,17:58,35-20.37N,140-43.03E,33,14.932,33.7379
1080,2020/5/11,17:59,35-20.60N,140-43.22E,33,14.97,33.7389